www.pogodaiklimat.ru

Погода и климат >> Архив погоды >> Россия >> Калининградская область >> Черняховск


ПОГОДА в Черняховске

  • Прогноз погоды в Черняховске
  • Монитор погоды в Черняховске
  • Климат города

АРХИВ ПОГОДЫ в Черняховске

Время (UTC), дата Ветер
(напр.,м/с)
 
Видим.   Явления Облачность Т
(С)
Тd
(С)
f
(%)
Тe
(С)
Тes
(С)
Комфортность P
(гПа)
Po
(гПа)
Тmin
(С)
Tmax
(С)
R
(мм)
R24
(мм)
S
(см)
09 8.11 ЮВ 1-3
{4}
н/о н/о +6.9 +6.9 100 +6 +6 1021.3 1017.3
12 8.11 штиль 0-1
{3}
н/о н/о +10.2 +8.5 89 +9 +9 1021.2 1017.3
15 8.11 ЮВ 1-2
{3}
н/о н/о +9.0 +7.5 90 +8 +8 1020.8 1016.9
18 8.11 штиль 0-1
{3}
1000 м дымка ясно +4.3 +4.2 99 +3 +3 1021.5 1017.5 +11.6
21 8.11 Ю 1-2
{2}
н/о н/о +4.2 +4.2 100 +3 +3 1021.9 1017.9
00 9.11 Ю 1-2
{3}
н/о н/о +4.2 +4.2 100 +3 +3 1021.6 1017.6
03 9.11 ЮВ 1-1
{2}
н/о н/о +4.5 +4.6 100 +3 +3 1021.0 1017.0 +3.7
06 9.11 ЮВ 1-2
{2}
200 м туман ?/? +4.8 +4.8 100 +3 +3 1021.2 1017.2 +3.7 0.1
09 9.11 ЮВ 1-1
{2}
н/о н/о +5.9 +5.9 100 +5 +5 1021.3 1017.3
12 9.11 ЮВ 1-2
{2}
н/о н/о +7.4 +7.4 100 +6 +6 1020.5 1016.5
15 9.11 штиль 0-1
{2}
н/о н/о +8.0 +8.0 100 +7 +7 1019.9 1016.0 0.1
18 9.11 Ю 1-2
{3}
500 м слабая морось туман ?/? +8.0 +8.0 100 +7 +7 1019.6 1015.7 +8.0 0.3
21 9.11 Ю 1-3
{3}
н/о н/о +7.7 +7.7 100 +7 +7 1019.4 1015.4
00 10.11 ЮВ 1-2
{2}
н/о н/о +7.6 +7.6 100 +6 +6 1018.6 1014.7
03 10.11 ЮВ 1-2
{3}
н/о н/о +8.0 +8.0 100 +7 +7 1017.7 1013.8 +7.6 0.4
06 10.11 ЮВ 1-2
{3}
1000 м дымка 10/10 300 м
[Sc]
+8.3 +8.3 100 +7 +7 1017.0 1013.1 +7.6 0.4
09 10.11 ЮВ 2-5
{5}
н/о н/о +8.0 +7.6 97 +6 +6 1017.0 1013.1
12 10.11 Ю 1-4
{5}
н/о н/о +9.3 +8.0 92 +9 +9 1016.6 1012.7
15 10.11 Ю 1-2
{4}
н/о н/о +8.8 +7.7 93 +8 +8 1016.9 1013.0
18 10.11 Ю 1-3
{5}
2000 м дымка 10/10 300 м
[Sc]
+8.3 +7.2 93 +7 +7 1017.4 1013.5 +9.6
21 10.11 ЮВ 2-4
{5}
н/о н/о +7.1 +6.2 94 +5 +5 1018.3 1014.3
00 11.11 ЮВ 2-4
{4}
н/о н/о +6.1 +5.5 96 +4 +4 1018.8 1014.8
03 11.11 ЮВ 2-5
{6}
н/о н/о +5.0 +4.8 99 +2 +2 1019.0 1015.0 +5.0
06 11.11 ЮВ 2-5
{6}
2000 м дымка 10/10 300 м
[Sc]
+4.6 +4.5 99 +2 +2 1019.5 1015.5 +4.6
09 11.11 ЮВ 3-5
{6}
н/о н/о +4.8 +4.1 95 +1 +1 1020.2 1016.2
12 11.11 ЮВ 4-8
{8}
н/о н/о +5.6 +4.2 91 +2 +2 1020.0 1016.0
15 11.11 ЮВ 3-7
{9}
н/о н/о +5.2 +3.9 91 +2 +2 1020.4 1016.4
18 11.11 ЮВ 3-6
{10}
2000 м дымка 10/10 300 м
[Sc]
+5.5 +4.5 93 +2 +2 1020.7 1016.7 +5.6
21 11.11 ЮВ 2-5
{7}
н/о н/о +6.3 +5.3 93 +4 +4 1021.2 1017.2
00 12.11 ЮВ 3-6
{6}
н/о н/о +7.2 +5.7 90 +4 +4 1021.6 1017.6
03 12.11 Ю 3-7
{7}
н/о н/о +7.8 +5.9 88 +5 +5 1022.3 1018.3 +5.2
06 12.11 Ю 3-5
{9}
4000 м дымка 10/10 300 м
[Sc]
+7.7 +5.8 88 +5 +5 1023.3 1019.3 +5.5
09 12.11 Ю 2-5
{8}
н/о н/о +8.3 +6.1 86 +6 +6 1024.2 1020.2
12 12.11 Ю 3-6
{8}
н/о н/о +8.4 +6.5 88 +6 +6 1024.1 1020.1
15 12.11 ЮВ 3-6
{9}
н/о н/о +7.7 +6.2 90 +5 +5 1024.1 1020.1
18 12.11 штиль 0-7
{7}
50 км ?/? +7.5 +6.0 90 +7 +7 1023.8 1019.8 +8.6
21 12.11
{8}
н/о н/о +7.7 +5 +10 1023.1 1019.1
00 13.11 Ю 3-9
{9}
н/о н/о +7.9 +6.4 90 +5 +5 1022.1 1018.1
03 13.11 Ю 3-6
{10}
н/о н/о +7.6 +6.2 91 +5 +5 1021.2 1017.2 +7.3
06 13.11 Ю 2-7
{8}
4000 м дымка 9/9 300 м
[Sc Ac trans]
+8.1 +6.6 90 +6 +6 1021.0 1017.0 +7.3
09 13.11 Ю 2-6
{9}
н/о н/о +8.9 +6.9 87 +7 +7 1021.0 1017.1
12 13.11 Ю 3-6
{7}
н/о н/о +9.5 +6.9 84 +7 +7 1019.7 1015.8
15 13.11 Ю 1-3
{6}
н/о н/о +8.8 +7.9 94 +8 +8 1018.7 1014.8 0.5
18 13.11 ЮЗ 1-3
{5}
2000 м ливневой дождь 10/10 300 м
[Cb cap]
+8.8 +8.7 99 +8 +8 1018.8 1014.9 +9.6 7
21 13.11 З 2-4
{4}
н/о н/о +8.8 +8.7 99 +7 +7 1019.1 1015.2
00 14.11 З 1-3
{6}
н/о н/о +8.7 +8.7 100 +8 +8 1019.6 1015.7
03 14.11 З 3-5
{7}
н/о н/о +8.1 +8.0 99 +5 +5 1020.1 1016.2 +8.1 21
06 14.11 З 3-4
{5}
4000 м слабый ливневой дождь 10/10 300 м
[Cb cap]
+7.9 +7.6 98 +5 +5 1021.0 1017.0 +7.9 17
09 14.11 З 3-4
{5}
н/о н/о +8.6 +8.4 99 +6 +6 1022.2 1018.3
12 14.11 СЗ 2-4
{4}
н/о н/о +9.8 +8.9 94 +8 +8 1023.5 1019.6
15 14.11 СЗ 2-3
{6}
н/о н/о +9.1 +8.2 94 +7 +7 1025.4 1021.4 1
18 14.11 З 1-3
{3}
4000 м дымка 9/9 300 м
[Cu Sc]
+8.2 +7.7 97 +7 +7 1026.8 1022.8 +10.3 0.4
21 14.11 З 1-2
{2}
н/о н/о +7.8 +7.5 98 +7 +7 1028.1 1024.1
00 15.11 штиль 0-1
{3}
н/о н/о +7.5 +7.4 99 +6 +6 1029.0 1025.0
03 15.11 СЗ 1-1
{2}
н/о н/о +7.4 +7.3 99 +6 +6 1030.3 1026.3 +7.3

 

Местоположение метеостанции Черняховск (Калининградская область, Россия): широта 54.63 долгота 21.80 высота над уровнем моря 31 м.

В архиве по умолчанию представлена погода в Черняховске за последнюю неделю. Архивные данные за месяц целиком и за предыдущие месяцы, начиная с января 2011 года, Вы можете получить, выбрав интересующий диапазон дат из раскрывающегося списка и нажав кнопку "Ввод!".


*Определитесь, кто Вы:
робот инопланетянин человек

Внимание! Время в таблицах - всемирное. Для получения местного времени необходимо прибавить поправку, которая в Черняховске равна 2 ч.

Смотрите также архив погоды в соседних городах и на ближайших метеорологических станциях:

Погода в Железнодорожном (Калининградская область, Россия) (43 км)
Погода в Советске (Калининградская область, Россия) (51 км)
Погода в Виштынце (Калининградская область, Россия) (62 км)
Погода в Kybart? (Литва) (63 км)
Погода в Ketrzyn (Польша) (68 км)
Погода в Калининграде (Калининградская область, Россия) (76 км)
Погода в ?ilut? (Литва) (83 км)
Погода в Рыбачьем (Калининградская область, Россия) (85 км)
Погода в Рыбном Порту (Калининградская область, Россия) (87 км)
Погода в Nidoje (Литва) (91 км)

Пояснения к столбцам:

Ветер - указаны скорость ветра в м/с - средняя за 10 мин, порывы в срок и между сроками (в фигурных скобках) и направление, откуда дует ветер: С - северный, СВ - северо-восточный, В - восточный, ЮВ - юго-восточный, Ю - южный, ЮЗ - юго-западный, З - западный, СЗ - северо-западный.
Видимость - горизонтальная дальность видимости в метрах или километрах. При видимости от 1 до 10 км при отсутствии осадков обычно наблюдается дымка, при ухудшении видимости до 1 км и менее - туман. В сухую погоду видимость может ухудшаться дымом, пылью или мглою.
Явления - указаны атмосферные явления, наблюдавшиеся в срок или в последний час перед сроком; фигурными скобками обозначены явления, наблюдавшиеся между сроками (за 1-3 часа до срока); квадратными скобками обозначены град или гололедные отложения с указанием их диаметра в мм.
Облачность - указаны через наклонную черту общая и нижняя облачность в баллах и высота нижней границы облаков в метрах; квадратными скобками обозначены формы облаков: Ci - перистые, Cs - перисто-слоистые, Cc - перисто-кучевые, Ac - высококучевые, As - высокослоистые, Sc - слоисто-кучевые, Ns - слоисто-дождевые, Cu - кучевые, Cb - кучево-дождевые. Подробнее классификацию облаков см. в Атласе облаков (PDF).
T - Температура воздуха - температура, измеренная на высоте 2 м над землей.
Td - Температура точки росы - температура, при понижении до которой содержащийся в воздухе водяной пар достигнет насыщения.
f - Относительная влажность воздуха - влажноcть воздуха, измеренная на высоте 2 м над землей.
Te - Эффективная температура - температура, которую ощущает одетый по сезону человек в тени. Характеристика душности погоды. При расчете учитывается влияние влажности воздуха и скорости ветра на теплоощущения человека.
Tes - Эффективная температура на солнце - температура, которую ощущает человек, с поправкой на солнечный нагрев. Характеристика знойности погоды. Зависит от высоты солнца над горизонтом, облачности и скорости ветра. Ночью, в пасмурную погоду, а также при ветре 12 м/с и более поправка равна нулю.
P - Атмосферное давление - приведенное к уровню моря атмосферное давление.
Po - Атмосферное давление - измеренное на уровне метеостанции атмосферное давление.
Tmin - Минимальная температура - минимум температуры воздуха на высоте 2 м над землей.
Tmax - Максимальная температура - максимум температуры воздуха на высоте 2 м над землей.
R - Количество осадков - Количество выпавших осадков за период времени, мм. При наведении курсора мыши на число - период времени, за который выпало указанное количество осадков.
R24 - Количество осадков - Количество выпавших осадков за 24 часа, мм.
S - Снежный покров - Высота снежного покрова, см. При наведении курсора мыши на число - состояние снежного покрова и степень покрытия местности в баллах.